Terminal Aerodrome Forecast
Issued by NWS La Crosse, WI

Home | Current Version | Previous Version | Text Only | Print | Product List | Glossary On
Versions: 1 2 3 4 5 6 7 8 9 10 11 12 13 14 15 16 17 18 19 20 21 22 23 24 25 26 27 28 29 30 31 32 33 34 35 36 37 38 39 40 41 42 43 44 45 46 47 48 49 50
847
FTUS43 KARX 280843 AAB
TAFLSE
TAF AMD
KLSE 280843Z 2809/2906 32004KT 5SM BR BKN025
     FM281100 VRB03KT 2SM BR BKN008
     FM281300 05004KT 3SM BR OVC015
     FM281500 06005KT P6SM BKN015
     FM281700 06005KT P6SM SCT030=

USA.gov is the U.S. government's official web portal to all federal, state and local government web resources and services.